Regional Weather Roundup
Issued by NWS

Home | Current Version | Previous Version | Graphics & Text | Print | Product List | Glossary On
Versions: 1 2 3 4 5 6 7 8 9 10 11 12 13 14 15 16 17 18 19 20 21 22 23 24 25 26 27 28 29 30 31 32 33 34 35 36 37 38 39 40 41 42 43 44 45 46 47 48 49 50
830
ASUS43 KMPX 270201
RWRMN
WEATHER ROUNDUP FOR MINNESOTA
NATIONAL WEATHER SERVICE TWIN CITIES/CHANHASSEN MN
800 PM CST SUN FEB 26 2017


NOTE: "FAIR" INDICATES FEW OR NO CLOUDS BELOW 12,000 FEET WITH NO
SIGNIFICANT WEATHER AND/OR OBSTRUCTIONS TO VISIBILITY. N/A MEANS
CURRENT SKY AND/OR WEATHER CONDITIONS ARE NOT AVAILABLE.

MNZ060>063-068>070-270300-
   Twin Cities Metro

CITY           SKY/WX    TMP DP  RH WIND       PRES   REMARKS
TWIN CITIES    PTCLDY    30  11  45 W5        29.93R WCI  25
ST PAUL        PTCLDY    28  15  58 CALM      29.94R
CRYSTAL        CLEAR     24  12  60 CALM      29.91S
BLAINE         CLEAR     28  10  47 CALM      29.92R
LAKEVILLE      MOCLDY    28  19  69 W3        29.93R
EDEN PRAIRIE   PTCLDY    29  15  56 W3        29.92R
SOUTH ST PAUL  CLEAR     30  13  49 W3        29.93R
LAKE ELMO      MOCLDY    28  14  54 N3        29.92S
$$
MNZ001>005-007-008-013>017-022>024-027-028-270300-
   Northwest Minnesota

CITY           SKY/WX    TMP DP  RH WIND       PRES   REMARKS
BEMIDJI        CLEAR     13   5  70 W6        29.86S WCI   4
HALLOCK        CLEAR     12   7  79 S9        29.86S WCI   0
ROSEAU         CLEAR     10   5  79 S10       29.84F WCI  -3
WARROAD        CLEAR     10   5  79 SW6       29.84S WCI   1
THIEF RVR FALL CLEAR      9   4  80 SW3       29.89R
CROOKSTON      CLEAR     12   9  85 CALM      29.90S
FOSSTON        CLEAR      9   3  78 S6        29.87F WCI  -1
DETROIT LAKES  CLOUDY    18  12  79 CALM      29.88F
MOORHEAD       CLOUDY    18  10  73 SE3       29.90F
PARK RAPIDS    MOCLDY    13   2  61 CALM      29.86S
MAHNOMEN       FAIR      15  10  79 SW3       29.88S
$$
MNZ006-009>011-018-025>026-270300-
   North Central Minnesota

CITY           SKY/WX    TMP DP  RH WIND       PRES   REMARKS
BAUDETTE       CLEAR     13   2  61 SW7       29.83R WCI   3
FLAG ISLAND    CLOUDY    12   3  67 SW12      29.82R WCI  -2
INTL FALLS     CLEAR     15   2  56 W8        29.83R WCI   4
WASKISH        CLEAR     10   3  72 W10       29.86S WCI  -3
BIG FORK       CLEAR      9   0  66 CALM      29.85S
LONGVILLE      CLEAR      9   1  72 CALM      29.87S
GRAND RAPIDS   CLEAR      8   0  69 CALM      29.88R
CRANE LAKE     CLEAR      1  -2  85 CALM      29.86R
ORR            CLEAR     12  -2  52 CALM      29.82R
COOK           CLEAR     14  -2  48 SW5       29.85R WCI   6
WALKER         FAIR      15   3  57 W3        29.87R
$$
MNZ012-019>021-037-270300-
   Northeast Minnesota

CITY           SKY/WX    TMP DP  RH WIND       PRES   REMARKS
DULUTH         CLEAR     15   0  51 W6        29.86R WCI   6
ELY            CLEAR      7   0  72 CALM      29.83R
HIBBING        CLEAR      5  -1  76 CALM      29.85R
EVELETH        CLEAR      9  -3  57 SW3       29.86S
DULUTH HARBOR  CLEAR     18   3  53 CALM      29.93R
TWO HARBORS    CLEAR     12   3  67 W5        29.87R WCI   4
SILVER BAY     CLEAR     10   3  72 CALM      29.86R
GRAND MARAIS     N/A     12   4  70 NW3       29.89R
G MARAIS ARPRT CLEAR      7  -6  56 W5        29.79R WCI  -2
$$
MNZ029>031-032-039>041-046>048-054>057-064-270300-
   West Central Minnesota

CITY           SKY/WX    TMP DP  RH WIND       PRES   REMARKS
FERGUS FALLS   CLOUDY    16   9  73 CALM      29.93S
WHEATON        CLEAR     19  12  73 E8        29.92R WCI   9
MORRIS         CLEAR     19  14  79 E3        29.88S
ALEXANDRIA     CLOUDY    19  11  70 E3        29.87F
ELBOW LAKE     CLOUDY    15   9  77 NE6       29.88S WCI   6
WADENA         MOCLDY     9   5  85 CALM      29.88S
GLENWOOD       CLEAR     19  12  73 N3        29.89S
APPLETON       MOCLDY    23  18  80 E3        29.90
BENSON           N/A     21  12  68 CALM      29.91F
ORTONVILLE       N/A     21  16  79 CALM      29.89F
MADISON        CLOUDY    28  19  69 E7        29.90F WCI  21
WILLMAR        FAIR      25  18  74 CALM      29.92S
$$
MNZ033>034-036-042>043-049>051-058-059-270300-
   Central Minnesota

CITY           SKY/WX    TMP DP  RH WIND       PRES   REMARKS
ST CLOUD       PTCLDY    25  12  58 N5        29.90S WCI  19
SAUK CENTRE    MOCLDY    22  12  65 NW3       29.89S
PAYNESVILLE    CLEAR     23  15  73 CALM      29.91R
AITKIN         CLEAR     10   7  85 CALM      29.88R
PINE RIVER     CLEAR     16   9  73 CALM      29.92R
BRAINERD       CLEAR     17   6  62 W6        29.90R WCI   9
STAPLES        MOCLDY     9   3  78 W5        29.89S WCI   0
LONG PRAIRIE   FAIR      21  10  63 NW7       29.88F WCI  13
LITTLE FALLS   PTCLDY    21   9  58 CALM      29.91S
LITCHFIELD     CLEAR     25  16  68 CALM      29.92R
BUFFALO        CLEAR     26  12  55 CALM      29.93R
MAPLE LAKE     CLEAR     26  15  63 CALM      29.92R
HUTCHINSON     CLEAR     27  20  76 CALM      29.93R
$$
MNZ037-044-045-052-053-270300-
   East Central Minnesota

CITY           SKY/WX    TMP DP  RH WIND       PRES   REMARKS
PRINCETON      MOCLDY    25  12  58 CALM      29.91R
MORA           CLEAR     19  10  68 CALM      29.92S
CAMBRIDGE      CLOUDY    25  10  54 CALM      29.90R
RUSH CITY      CLEAR     19   9  63 CALM      29.92R
MOOSE LAKE     CLEAR     14   3  62 CALM      29.88S
HINCKLEY       FAIR      23   7  50 CALM      29.91R
CLOQUET        CLEAR     10   3  72 CALM      29.87S
MCGREGOR       CLEAR     12   3  67 CALM      29.89S
$$
MNZ071>073-080-081-089-090-097-098-270300-
   Southwest Minnesota

CITY           SKY/WX    TMP DP  RH WIND       PRES   REMARKS
MONTEVIDEO     MOCLDY    25  19  80 E3        29.93R
GRANITE FALLS  CLOUDY    28  22  79 NE5       29.92S WCI  23
CANBY          LGT SNOW  30  22  71 CALM      29.90S
MARSHALL       MOCLDY    29  20  69 E6        29.90R WCI  23
REDWOOD FALLS  CLEAR     28  18  66 E3        29.91R
OLIVIA         PTCLDY    28  21  74 CALM      29.91S
PIPESTONE      CLEAR     30  25  80 SW10      29.87R WCI  21
WINDOM         CLEAR     30  27  86 S9        29.90S WCI  22
WORTHINGTON    CLEAR     29  25  85 SW10      29.90S WCI  20
JACKSON        CLEAR     30  27  86 S8        29.92R WCI  23
TRACY          CLEAR     29  25  82 SE6       29.90R WCI  23
SLAYTON        CLEAR     30  26  84 S12       29.89S WCI  21
$$
MNZ065>067-074>077-082>085-091>093-270300-
   South Central Minnesota

CITY           SKY/WX    TMP DP  RH WIND       PRES   REMARKS
MANKATO          N/A     30  22  72 E3        29.94R
NEW ULM        CLOUDY    28  19  69 CALM      29.93R
ST JAMES       CLOUDY    34  28  80 CALM      29.93S
FAIRMONT       CLEAR     27  23  85 SW12      29.94R WCI  17
GLENCOE        CLEAR     29  22  76 CALM      29.92R
FARIBAULT      MOCLDY    27  19  74 CALM      29.94R
OWATONNA       MOCLDY    27  21  80 SW3       29.93S
WASECA         CLOUDY    30  27  86 CALM      29.95R
ALBERT LEA     CLEAR     27  21  80 SW5       29.94R WCI  21
$$
MNZ078>079-086>088-094>096-270300-
   Southeast Minnesota

CITY           SKY/WX    TMP DP  RH WIND       PRES   REMARKS
ROCHESTER      CLEAR     19  17  92 SW12      29.94R WCI   7
RED WING       CLEAR     27  18  69 CALM      29.93R
STANTON        MOCLDY    27  20  74 S3        29.93R
WINONA         CLEAR     30  23  74 W7        29.96R WCI  23
AUSTIN         CLEAR     19  18  93 CALM      29.95R
PRESTON        CLEAR     25  20  83 SW10      29.94S WCI  14
$$
ABBREVIATIONS USED IN REMARKS
   TC - TEMPERATURES IN CELSIUS
  WCI - WIND CHILL INDEX
   HX - HEAT INDEX
  VSB - VISIBILITY
$$




USA.gov is the U.S. government's official web portal to all federal, state and local government web resources and services.